Regional Weather Roundup
Issued by NWS Wakefield, VA

Home | Current Version | Previous Version | Graphics & Text | Print | Product List | Glossary On
Versions: 1 2 3 4 5 6 7 8 9 10 11 12 13 14 15 16 17 18 19 20 21 22 23 24 25 26 27
000
ASUS41 KAKQ 261815
RWRAKQ

REGIONAL WEATHER ROUNDUP
NATIONAL WEATHER SERVICE WAKEFIELD VA
200 PM EDT FRI MAY 26 2017

Note: "fair" indicates few or no clouds below 12,000 feet with no
significant weather and/or obstructions to visibility. * = Denotes
station may not report precipitation (e.g., rain,snow,etc.),
thunder or fog.

VAZ042-051-052>054-056-261900-
NORTHERN VIRGINIA

CITY           SKY/WX    TMP DP  RH WIND       PRES   REMARKS
WASH NATIONAL  PTSUNNY   77  55  46 NW20G28   29.76S
DULLES         PTSUNNY   73  53  49 W17G26    29.78S
FORT BELVOIR   MOSUNNY   76  55  47 NW17G23   29.76F
QUANTICO       PTSUNNY   78  55  44 NW26G36   29.78S
FREDERICKSBRG* MOSUNNY   78  56  47 W18G28    29.78S
STAFFORD*      SUNNY     76  58  53 W9G16     29.83S
WARRENTON      MOSUNNY   77  51  39 W10G26    29.79S
CULPEPER*      CLOUDY    74  54  48 NW14G23   29.82S
MANASSAS*      MOSUNNY   76  56  49 W21G28    29.78S
LEESBURG*      PTSUNNY   77  61  57 NW20G29   29.78S
WINCHESTER     CLOUDY    68  54  60 SW16G22   29.81R
FRONT ROYAL*   MOCLDY    72  55  56 W14G21    29.81S
LURAY*         MOCLDY    72  52  49 W9G23     29.84F
$$

VAZ048-049-060>072-079>083-261900-
CENTRAL AND SOUTH CENTRAL VIRGINIA

CITY           SKY/WX    TMP DP  RH WIND       PRES   REMARKS
RICHMOND       PTSUNNY   78  54  43 W16G25    29.81F
CHESTERFIELD*  NOT AVBL
PETERSBURG*    MOSUNNY   77  53  42 CALM      29.84F
HANOVER        MOSUNNY   78  53  41 W14G23    29.82S
TAPPAHANNOCK*  PTSUNNY   76  48  37 W12G20    29.80S
QUINTON*       FAIR      78  56  46 NW12G26   29.80S
CHARLOTTSVILLE SUNNY     78  53  41 W8G17     29.83R
GORDONSVILLE*  PTCLDY    77  53  43 W8        29.81S
ORANGE*        MOSUNNY   73  54  49 W14G21    29.81S
LOUISA*        CLOUDY    79  59  50 W6        29.81S
BUMPASS*       MOCLDY    76  55  47 W9G18     29.82S
FARMVILLE*     PTSUNNY   77  43  29 W10       29.85S
CREWE*         MOCLDY    75  45  34 W13       29.86S
FORT PICKETT*  FAIR      76  46  33 W9G26     29.86S
CHASE CITY*    FAIR      75  50  42 W8        29.88S
CLARKSVILLE*   MOCLDY    77  54  44 NW8G18    29.88F
SOUTH HILL*    PTSUNNY   75  55  50 W8G17     29.93F
LAWRENCEVILLE* FAIR      76  53  45 W7        29.86F
EMPORIA*       PTSUNNY   75  54  46 SW9       29.86F
$$

VAZ088>098-261900-
SOUTHEAST VIRGINIA

CITY           SKY/WX    TMP DP  RH WIND       PRES   REMARKS
NORFOLK        MOSUNNY   79  56  45 W12G17    29.81S
VIRGINIA BEACH MOSUNNY   79  56  45 W15       29.79F
NORFOLK NAVAL  NOT AVBL
WEST POINT*    PTSUNNY   79  54  42 W15G21    29.81S
SALUDA*        FAIR      77  58  52 W7G16     29.78F
NEWPORT NEWS   SUNNY     79  57  46 W15G22    29.81F
LANGLEY AFB    MOSUNNY   77  58  52 NW13G24   29.80S
FORT EUSTIS    MOSUNNY   80  58  46 NW13      29.79F
WILLIAMSBURG*  MOSUNNY   81  59  47 NW10G21   29.81F
HR EXEC AP*    FAIR      79  57  47 W14G23    29.79F
FRANKLIN*      PTSUNNY   76  55  47 W13G20    29.84S
US460-WAKEFLD  CLOUDY    77  55  46 W13       29.83S
$$

VAZ020-022-025-037-045-261900-
WEST CENTRAL AND SOUTHWEST VIRGINIA

CITY           SKY/WX    TMP DP  RH WIND       PRES   REMARKS
STAUNTON*      PTSUNNY   73  50  45 NW12      29.88S
WAYNESBORO*    MOCLDY    72  53  52 NW8G21    29.88S
HOT SPRINGS VA CLOUDY    61  41  48 W20G26    29.96R
LYNCHBURG      MOSUNNY   74  51  44 W13G21    29.90S
DANVILLE       PTSUNNY   76  55  48 W10G22    29.90F
SOUTH BOSTON*  FAIR      78  51  37 W13G18    29.89S
MARTINSVILLE   PTSUNNY   76  52  42 W5        29.95S
ROANOKE        MOSUNNY   76  49  38 NW18G30   29.93S
BLACKSBURG     MOSUNNY   69  50  49 NW14G20   29.99S
DUBLIN*        SUNNY     73  44  35 W14       29.99S
MARION*        MOSUNNY   70  50  49 W16G24    30.02S
HILLSVILLE*    MOSUNNY   69  45  42 W15G22    29.99S
RICHLANDS*     MOCLDY    67  45  44 W13       30.03S
WISE*          MOSUNNY   70  50  49 W3        30.05S
ABINGDON*      PTSUNNY   71  54  55 W14       30.03S
$$

MDZ021>025-VAZ099-100-261900-
SOUTHERN MARYLAND AND THE DELMARVA PENINSULA

CITY           SKY/WX    TMP DP  RH WIND       PRES   REMARKS
PATUXENT RIVER PTSUNNY   77  60  55 W21G29    29.75F
BAY BRIDGE APT CLOUDY    70  57  64 W17G25    29.75R
LEONARDTOWN    CLOUDY    73  55  53 W9G20     29.78S
DOVER          PTSUNNY   75  67  74 W14G26    29.68S
GEORGETOWN     PTSUNNY   76  55  48 W9G26     29.73R
EASTON         PTSUNNY   75  57  53 NW18G26   29.78S
CAMBRIDGE      CLOUDY    73  59  60 W14G21    29.76S
SALISBURY      CLOUDY    73  56  54 W21G29    29.75R
OCEAN CITY     CLOUDY    73  56  54 W12G23    29.75R
WALLOPS ISLAND PTSUNNY   75  57  53 W17G29    29.76S
ACCOMACK*      MOSUNNY   77  18  11 W15G24    29.78S
$$

NCZ012>017-030>032-261900-
NORTH CENTRAL AND EASTERN NORTH CAROLINA

CITY           SKY/WX    TMP DP  RH WIND       PRES   REMARKS
ROANOKE RAPIDS MOCLDY    75  55  50 W13G18    29.88S
RALEIGH        MOSUNNY   79  56  45 W13G23    29.92S
ELIZABETH CITY MOSUNNY   79  58  48 W17G23    29.83S
AHOSKIE*       NOT AVBL
EDENTON*       MOSUNNY   79  57  45 NW10G20   29.86S
CURRITUCK*     MOSUNNY   80  56  44 W13G22    29.83S
KILL DEVIL HLS SUNNY     77  56  47 W10G20    29.83S
MANTEO         SUNNY     77  56  47 NW10G20   29.85S
CAPE HATTERAS  SUNNY     80  59  48 W12G18    29.88S
TARBORO*       NOT AVBL
GOLDSBORO      MOSUNNY   80  55  41 W10G18    29.89S
WASHINGTON     SUNNY     79  55  44 W13       29.88F
GREENVILLE     MOSUNNY   81  55  41 NW8G17    29.91F
NEW BERN       MOSUNNY   82  57  42 W13G20    29.90F
WILMINGTON     SUNNY     82  56  40 W13       29.92S
$$

VAZ048-261900-
ELSEWHERE

CITY           SKY/WX    TMP DP  RH WIND       PRES   REMARKS
HARRISBURG PA  PTSUNNY   70  55  59 W18G25    29.70R
BALTIMORE      LGT RAIN  72  58  61 W18G32    29.74R
ANNAPOLIS      PTSUNNY   74  58  57 NW14G24   29.74S
ANDREWS AFB    PTSUNNY   74  54  49 NW13G24   29.75F
PHILADELPHIA   PTSUNNY   76  56  49 W18       29.66S
HENDERSON NC   MOSUNNY   74  54  50 NW9G16    29.90F
GREENSBORO     PTSUNNY   76  56  49 W14       29.93F
ROCKY MOUNT    MOSUNNY   78  54  43 W15G24    29.89F
$$

VAZ100-261900-
MARINE

STATION/POSITION TIME  TEMP    WIND        PRES    WAVE   SWELL
                       AIR SEA DIR/SP/G            HT/PER HT/PER
                 (UTC) (F)     (DEG/KT/KT) (MB)    (FT/S) (FT/S)
CAPE MAY NJ      1748   70 63  310/ 10/ 15 1005.4R
LEWES DE         1748   72 63  290/ 18/ 22 1005.8R
15NM E FENWICK I 1650   64 58  260/ 10/ 12 1006.8    4/ 8   3/ 8
WACHAPREAGUE VA  1748   78 71  250/  5/ 17 1007.9F
THOMAS POINT MD  1800   71 64  300/ 18/ 21   N/A
GOOSES REEF MD   1750   71     290/ 14/ 19 1008.5S
COVE POINT MD    1748   73     310/  8/ 13 1008.3F
SOLOMONS ISLAND  1748   74 67  280/ 13/ 18   N/A
BISHOPS HEAD MD  1748   71 71  290/ 11/ 13 1008.5F
PINEY POINT MD   1748          310/ 11/ 14   N/A
POTOMAC MD       1750   71     310/ 10/ 12 1007.2F
CAMBRIDGE MD     1742   73 69                N/A
LEWISETTA VA     1748   74 68  300/ 10/ 14 1008.2F
RAPPAHANNOCK LGT 1748          280/ 14/ 15 1009.1F
STINGRAY PT      1750   72     310/  8/ 10 1009.3F
YORK RVR RNG VA  1748   74     280/ 17/ 19 1008.2F
YORKTOWN VA      1748   75 69  270/ 14/ 18 1008.7F
JAMESTOWN VA     1750   74     270/ 14/ 17   N/A
DOMINION TERM VA 1748   74     310/ 13/ 16 1009.4F
KIPTOPEKE VA     1748      67  280/ 11/ 13   N/A
CHES BAY BRIDGE  1748   72 67  280/ 14/ 16 1009.1F
CAPE HENRY VA    1748   76     280/ 15/ 19   N/A
WILLOUBY STN VA  1748   74     290/ 14/ 16 1009.2F
S CRANEY ISL VA  1748   77     290/ 11/ 16 1009.2F
CAPE HENRY BUOY  1742      63                N/A     3/ 8
1ST LANDING BUOY 1750   72                 1009.3S
CAPE CHARLES BUO 1751      64                N/A     2/10
64NM E OF VA BCH 1650   64 61  260/ 12/ 12 1009.9    6/ 7   5/ 7
DUCK PIER NC     1748   75 63  280/ 16/ 19 1009.7R
44100 DUCK FRF   1735      64                N/A     2/ 9
44056 DUCK FRF   1700      62                N/A     2/ 2
OREGON INLET NC  1742   77 71  280/ 13/ 18 1010.4S
HATTERAS NC      1748   74 71  280/ 18/ 20 1011.5S
DIAMOND SHLS NC  1650   74 79  280/ 19/ 23 1011.8    8/ 8
CAPE LOOKOUT NC  1700   76     250/ 14/ 18 1012.4F
$$




USA.gov is the U.S. government's official web portal to all federal, state and local government web resources and services.